Weather History for Dax, France

Change the Weather History Date:

Wednesday, February 20, 2013

  Actual Average (LFBZ) Record (LFBZ)
Temperature  
Mean Temperature 50 °F -  
Max Temperature 64 °F 56 °F 75 °F (1998)
Min Temperature 35 °F 42 °F 30 °F (2012)
Degree Days  
Heating Degree Days 16    
Moisture  
Dew Point 40 °F    
Average Humidity 75    
Maximum Humidity 100    
Minimum Humidity 32    
Precipitation  
Precipitation 0.00 in - - ()
Sea Level Pressure  
Sea Level Pressure 29.89 in    
Wind  
Wind Speed 3 mph ()    
Max Wind Speed 5 mph    
Max Gust Speed -    
Visibility 4.4 miles    
Events Fog    
Averages and records for this station are not official NWS values.
T = Trace of Precipitation, MM = Missing Value Source: Averaged Metar Reports

Daily Weather History Graph

Daily Weather History Graph

Search for Another Location

Airport:

Trip Planner

Search our weather history database for the weather conditions in past years. The results will help you decide how hot, cold, wet, or windy it might be!

Date:

Astronomy

Feb. 20, 2013 Rise Set
Actual Time 7:55 AM CET 6:41 PM CET
Civil Twilight 7:26 AM CET 7:10 PM CET
Nautical Twilight 6:52 AM CET 7:43 PM CET
Astronomical Twilight 6:19 AM CET 8:17 PM CET
Moon 1:44 PM CET (2/20) 4:09 AM CET (2/20)
Length of Visible Light 11h 44m
Length of Day
10h 45m
Waxing Gibbous, 74% of the Moon is Illuminated
Feb 20
Waxing Gibbous
Feb 25
Full
Mar 4
Last Quarter
Mar 11
New
Mar 19
First Quarter

Hourly Weather History & Observations

Time (CET) Temp. Windchill Dew Point Humidity Pressure Visibility Wind Dir Wind Speed Gust Speed Precip Events Conditions
12:00 AM 46.4 °F 44.3 °F 42.8 °F 87% 29.89 in 6.2 mi ENE 4.6 mph - N/A   Unknown
2:00 AM 44.6 °F 43.1 °F 42.8 °F 93% 29.89 in 5.6 mi ENE 3.5 mph - N/A   Unknown
3:00 AM 42.8 °F 40.1 °F 42.8 °F 100% 29.89 in 5.0 mi NE 4.6 mph - N/A   Unknown
4:00 AM 41.0 °F 39.0 °F 41.0 °F 100% 29.89 in 3.1 mi ENE 3.5 mph - N/A   Unknown
5:00 AM 39.2 °F - 39.2 °F 100% 29.89 in - East 2.3 mph - N/A   Unknown
6:00 AM 41.0 °F - 41.0 °F 100% 29.89 in - Variable 2.3 mph - N/A   Unknown
8:00 AM 35.6 °F - 35.6 °F 100% 29.92 in 0.9 mi Calm Calm - N/A   Mist
9:00 AM 39.2 °F - 39.2 °F 100% 29.92 in 0.2 mi Variable 2.3 mph - N/A Fog Fog
10:00 AM 39.2 °F 37.0 °F 39.2 °F 100% 29.95 in 0.2 mi ENE 3.5 mph - N/A Fog Fog
11:00 AM 44.6 °F 43.1 °F 44.6 °F 100% 29.95 in 1.9 mi Variable 3.5 mph - N/A   Scattered Clouds
1:00 PM 55.4 °F - 46.4 °F 72% 29.92 in 5.6 mi Variable 2.3 mph - N/A   Unknown
2:00 PM 59.0 °F - 44.6 °F 59% 29.89 in - Variable 3.5 mph - N/A   Clear
3:00 PM 60.8 °F - 39.2 °F 45% 29.89 in - NE 3.5 mph - N/A   Clear
4:00 PM 64.4 °F - 33.8 °F 32% 29.86 in - Variable 2.3 mph - N/A   Clear
5:00 PM 62.6 °F - 35.6 °F 37% 29.86 in - Variable 3.5 mph - N/A   Clear
6:00 PM 60.8 °F - 35.6 °F 39% 29.86 in 6.2 mi Variable 3.5 mph - N/A   Unknown
7:00 PM 59.0 °F - 35.6 °F 42% 29.86 in 6.2 mi East 3.5 mph - N/A   Unknown
8:00 PM 53.6 °F - 39.2 °F 58% 29.89 in 6.2 mi NNW 2.3 mph - N/A   Unknown
9:00 PM 51.8 °F - 41.0 °F 67% 29.86 in 6.2 mi North 2.3 mph - N/A   Unknown
10:00 PM 46.4 °F - 39.2 °F 76% 29.89 in 6.2 mi Calm Calm - N/A   Unknown
11:00 PM 46.4 °F 44.3 °F 39.2 °F 76% 29.86 in 6.2 mi East 4.6 mph - N/A   Unknown